Location: Harmony
(28.2000°N, 81.1500°W)
Time: 17:03:30
(UTC-05:00)

EO 1 Del DPAF - Pass Details

Date: 18 December 2017
Orbit: 524 x 528 km, 98.1° (Epoch: 22 January)

Event Time Altitude Azimuth Distance (km) Brightness Sun altitude
Exits shadow 18:10:16 - 20° (NNE) 2,557 6.3 -8.5°
Reaches altitude 10° 18:12:12 10° 26° (NNE) 1,765 5.5 -8.9°
Maximum altitude 18:15:52 46° 100° (E) 707 3.5 -9.7°
Drops below altitude 10° 18:19:31 10° 175° (S) 1,756 6.1 -10.4°
Sets 18:21:40 0° 181° (S) 2,641 7.1 -10.8°
